Terminal Aerodrome Forecast
Issued by NWS

Current Version | Previous Version | Text Only | Print | Product List | Glossary On
Versions: 1 2 3 4 5 6 7 8 9 10 11 12 13 14 15 16 17 18 19 20 21 22 23 24 25 26 27 28 29 30 31
000
FTUS41 KCTP 301246 AAA
TAFAOO
TAF AMD
KAOO 301246Z 3013/3112 30005KT P6SM BKN025 BKN050
     FM301600 32005KT P6SM BKN050
     FM310600 00000KT P6SM BKN100=

USA.gov is the U.S. government's official web portal to all federal, state and local government web resources and services.